Showing default

ASBM-2, 60423

Orbit data source: Space-Track

ASBM-2, 60423 is a Norwegian payload satellite in HEO that was launched on Mon, 12 Aug 2024 UTC via an FALCON 9 launch vehicle from the Air Force Western Test Range (AFWTR). Payload-class satellites include a variety of spacecraft equipped with specific instruments for various scientific and technological missions. These include communications satellites like Starlink; space stations such as the ISS; scientific satellites like the Hubble; Earth observation satellites from companies like Planet Labs, Umbra, and HawkEye 360; GPS; miniature CubeSats for education and research; and military/defense satellites.

Loading next visibility...
Identifier
60423, 2024-143B
Orbit
HEO
Country
Flag of NONO / NOR
Related business
Manufacturer
NGIS SSG
Mission
Operational Commercial Communications
Bus & Motor
GEOSTAR-3, BT-4?
Mass
3,505 kg wet, 1,925 kg dry
Launch date (UTC)
2024-08-12 (2 years ago)
Launch vehicle
FALCON 9
Launch site
Air Force Western Test Range (AFWTR)
Object type
Payload
Rocket body
Debris
Shape & HBR
Box + 2 Pan, 13.5 m
Radar Cross Section
35.796 m², Large (>1 m²)

Expand to show TLE details & history
Last TLE update: 5 days ago

TLE from 5 days ago
0 ASBM-2
1 60423U 24143B   26258.57434434 -.00000072  00000-0  00000-0 0  9996
2 60423  62.8936  41.9938 5640687 269.4595  29.3828  1.50425879 12962
Epoch: 2026-09-15T13:47Z
TLE epoch observation values (Epoch: 2026-09-15T13:47:03.350Z)
Latitude
-0.00002°
Longitude
-159.37032°
Altitude
15,674.906 km
Speed
4.875 km/s
True Right ascension
02h 47m 43s
True Declination
0° 00' 00"
Sunlit
Object was in daylight at epoch
Visualization orbit readout
Latitude
Unknown
Longitude
Unknown
Altitude
Unknown
Speed
Unknown
Apparent Right ascension
Unknown
Apparent Declination
Unknown
Sunlit
N/A
Visualization observer readout
Local Sidereal Time
09:28:01
Azimuth
Unknown
Elevation
Unknown
Doppler factor
Unknown
Orbital elements
Apogee altitude
43,945.27 km
Perigee altitude
7,647.812 km
Semi-major axis
32,174.678 km
Eccentricity
0.56407
Inclination
62.8936°
RAAN
41.9938°
Arg. of periapsis
269.4595°
True anomaly
90.7177°
Mean anomaly
29.3828°
Eccentric anomaly
56.25708°
Mean motion
0.37607 °/min
Orbital period
957.26 mins
BSTAR
0
Loading maneuver chart data...
Computing Atmospheric mass density...
Loading historical data...
Loading historical data...
Loading historical data...
Loading historical data...
Loading historical data...
Loading historical data...
Loading historical data...
Other satellites on launch #143 in the year 2024 (2024-08-12 UTC)

Documentation

Showing up to 5 results
|